Location: Home
(42.5358°N, 72.7383°W)
Time: 03:04:41
(UTC-04:00)

IRIDIUM 152 - Pass Details

Date: 08 July 2022
Orbit: 776 x 779 km, 86.4° (Epoch: 16 August)

Event Time Altitude Azimuth Distance (km) Brightness Sun altitude
Exits shadow 04:42:59 - 213° (SSW) 2,620 ? -6.6°
Reaches altitude 10° 04:43:50 10° 218° (SW) 2,326 ? -6.5°
Maximum altitude 04:48:27 32° 280° (W) 1,319 ? -5.8°
Drops below altitude 10° 04:53:08 10° 344° (NNW) 2,341 ? -5.2°
Sets 04:55:44 0° 354° (N) 3,273 ? -4.8°
